Location: Dob?e?
(49.9411°N, 15.1496°E)
Time: 17:06:29
(UTC+00:00)

STARLINK-1346 - Pass Details

Date: 07 June 2020
Orbit: 376 x 383 km, 53.0° (Epoch: 09 July)

Event Time Altitude Azimuth Distance (km) Brightness Sun altitude
Rises 01:28:05 0° 291° (WNW) 2,264 6.6 -10.1°
Reaches altitude 10° 01:30:08 10° 291° (WNW) 1,408 5.6 -9.9°
Maximum altitude 01:33:17 87° 203° (SSW) 389 2.8 -9.6°
Drops below altitude 10° 01:36:25 10° 114° (ESE) 1,401 5.9 -9.3°
Sets 01:38:28 0° 114° (ESE) 2,250 6.9 -9.1°
